Theta_e
290 290 289 290 290 291 291 292 292 292 292 292 291 291 291 291 291 291 292 292 292 291 291 291 290 290 290 290 290 290 289 288 287 287 286 286 286 285 285 285 284 284 284 284 283 283 283 283 283 283 282 283 283 283 283 283 282 282 282 283 283 283
290 290 289 289 289 290 290 291 292 291 291 291 291 291 291 291 291 291 291 291 291 291 290 290 290 290 289 289 289 288 287 287 286 286 285 285 284 284 284 283 283 283 283 283 282 282 282 282 282 282 281 282 282 282 282 282 281 281 281 282 282 283
290 290 290 290 290 290 290 290 290 291 291 291 291 290 290 290 291 291 291 291 290 290 289 289 289 288 289 288 288 287 286 286 286 285 284 284 283 283 283 282 282 282 282 282 281 281 281 281 281 281 281 281 280 280 281 281 280 280 280 280 280 281
290 290 289 289 289 289 289 290 290 290 290 290 290 290 290 290 290 290 290 290 290 289 288 288 288 288 287 287 286 285 285 284 284 284 283 283 282 282 282 281 281 281 281 281 280 280 280 280 280 280 279 279 279 279 280 280 279 279 279 279 279 280
290 289 289 288 288 288 288 289 289 289 290 290 290 289 290 290 290 290 290 289 289 288 287 287 286 286 286 285 285 284 284 283 283 283 282 282 281 281 281 281 280 280 280 280 280 279 279 279 278 279 278 278 278 277 278 279 278 278 277 278 278 278
290 289 288 288 287 287 288 288 289 289 289 289 289 289 289 290 290 289 289 288 288 287 286 286 286 285 285 284 283 283 282 282 282 282 281 281 281 280 280 280 279 279 279 279 279 278 278 278 278 277 277 277 277 277 277 277 277 277 277 277 277 278
289 288 288 288 287 287 287 288 288 289 289 289 289 289 290 289 289 288 288 287 286 285 285 284 285 284 283 283 283 282 282 281 281 281 280 280 280 280 279 279 279 278 278 278 277 277 277 277 277 276 276 276 276 276 276 276 277 277 277 277 277 278
289 289 288 288 287 287 287 288 288 288 289 289 289 289 289 289 289 288 287 286 285 284 284 284 284 283 283 282 282 281 281 280 280 279 279 279 279 279 279 278 278 277 277 277 276 276 276 276 276 275 275 275 276 276 276 276 277 277 277 277 277 277
289 289 289 288 288 287 287 288 288 288 288 288 289 289 289 288 288 287 286 285 284 283 283 283 283 283 282 282 281 280 280 279 279 278 278 278 278 277 277 277 276 277 276 276 275 275 275 275 275 275 275 275 275 275 276 276 277 277 277 277 277 277
290 289 289 288 288 288 288 288 288 288 288 288 288 288 288 287 286 285 284 284 283 283 283 283 283 283 282 281 280 279 278 278 277 277 277 277 276 276 276 276 275 276 275 275 275 275 274 274 274 274 274 274 275 275 276 276 276 276 276 276 276 276
290 290 289 289 288 287 287 287 287 288 288 288 288 288 287 287 285 285 285 284 283 283 284 283 282 282 281 279 279 278 277 277 277 276 276 276 276 276 275 275 275 275 275 274 274 274 274 273 274 274 273 273 274 275 275 275 275 275 275 275 275 276
291 291 290 289 288 287 287 287 287 287 287 287 287 287 287 286 285 284 284 283 283 284 283 282 281 280 279 278 278 277 277 276 276 275 275 275 275 275 275 274 274 274 274 273 273 273 273 273 274 273 273 275 275 275 275 275 275 275 275 274 274 274
292 291 290 289 288 287 287 287 287 287 287 287 286 286 286 285 284 284 284 283 284 282 281 280 280 279 278 278 277 277 276 276 275 275 275 274 274 274 273 273 273 274 273 273 273 272 273 273 273 273 275 276 276 275 274 274 274 274 274 274 274 273
292 291 290 289 289 288 287 287 287 286 286 286 286 286 286 285 284 284 284 284 282 281 280 280 279 279 278 277 276 276 275 275 274 274 274 273 273 273 273 273 273 272 272 272 272 272 272 272 273 274 275 275 276 276 275 274 274 274 274 274 273 273
292 291 290 290 289 288 288 287 286 286 286 286 286 285 285 284 284 284 284 283 282 281 280 279 278 278 277 276 275 274 274 273 273 273 272 272 273 272 272 273 272 272 272 271 271 271 271 271 273 274 274 275 275 276 275 274 273 273 273 273 273 273
293 292 291 290 290 289 289 288 287 287 287 286 285 285 284 284 284 284 284 282 281 280 279 278 278 277 276 275 274 273 272 272 272 272 272 272 271 272 272 271 270 271 270 270 270 270 270 271 272 273 274 274 275 275 275 273 273 273 273 272 272 272
292 292 291 290 290 290 289 288 287 287 286 286 285 285 284 284 284 283 282 281 280 279 278 278 277 276 275 274 273 272 272 271 272 271 271 271 271 271 270 270 269 269 269 268 269 268 268 269 272 273 273 274 274 274 274 273 272 272 272 272 272 271
292 291 291 291 290 289 289 288 287 286 286 286 285 284 284 283 283 283 281 280 279 278 278 277 276 276 274 273 272 271 271 271 271 270 271 271 271 270 270 270 269 268 267 267 267 267 267 268 271 272 272 273 273 274 272 271 271 270 270 270 271 271
292 292 292 291 290 289 288 288 287 286 285 284 284 283 283 283 283 282 281 280 279 278 277 277 276 275 273 272 271 271 271 271 270 270 270 269 270 269 269 268 268 267 267 266 266 265 266 267 269 270 271 272 273 272 270 270 270 270 270 270 270 270
290 291 290 289 289 289 288 287 286 286 284 284 283 283 283 283 282 282 281 280 279 278 277 277 276 274 273 272 271 270 271 271 270 269 269 269 268 268 268 267 267 266 266 265 265 265 265 265 267 270 271 272 272 272 270 270 269 269 269 269 270 270
288 288 288 288 288 288 287 286 286 285 283 283 283 283 282 282 282 282 281 280 279 278 277 276 275 274 273 271 271 270 270 269 269 269 268 267 268 267 267 266 266 266 265 265 265 266 265 265 266 268 270 270 271 271 270 270 269 269 269 269 269 270
286 286 286 286 287 287 286 285 285 284 283 282 282 282 281 282 282 283 281 281 279 277 276 275 274 273 272 271 270 269 269 269 268 267 267 266 267 267 267 266 265 264 264 265 264 264 265 264 265 266 269 270 271 272 270 270 269 268 269 269 269 269
285 285 286 286 287 285 285 284 284 283 283 282 281 281 282 282 283 282 281 279 277 276 274 273 273 272 271 270 269 268 267 268 267 266 266 265 266 266 265 264 263 263 263 264 265 265 264 265 264 265 268 270 271 272 272 270 269 269 269 269 269 270
285 285 285 286 285 283 283 283 282 282 282 281 280 281 282 282 282 281 280 278 276 274 272 271 270 270 268 267 267 266 266 266 266 265 264 265 265 263 262 262 263 263 263 264 265 264 264 265 266 265 267 269 271 272 272 271 270 271 270 270 270 270
284 284 285 285 283 282 282 282 281 281 281 280 281 282 282 282 281 280 278 276 274 271 270 269 267 266 265 264 265 265 265 263 262 262 263 262 262 261 261 261 262 262 263 263 264 265 265 265 265 267 266 269 271 272 273 273 273 274 272 271 270 270
284 284 284 282 281 281 281 281 280 280 280 280 282 282 281 280 279 277 276 273 272 270 268 266 265 264 263 263 264 264 263 263 262 262 262 262 263 263 263 264 264 263 263 263 264 264 266 265 266 267 269 269 271 272 273 273 274 274 272 272 272 272
284 284 282 281 279 280 280 280 280 279 279 281 282 281 279 278 275 274 273 272 270 268 266 264 264 263 263 263 263 263 263 261 261 262 263 262 263 264 264 265 264 263 263 264 263 264 265 265 266 267 269 270 270 271 272 273 274 274 275 272 272 273
282 283 281 279 278 278 278 279 280 279 280 281 281 280 277 275 273 272 272 270 268 266 264 263 262 262 262 262 263 263 264 262 262 264 264 263 264 264 263 264 264 263 263 263 264 264 264 265 266 267 268 269 270 270 271 272 273 273 274 274 273 274
281 281 281 280 278 277 277 277 279 280 281 280 280 278 275 273 272 271 271 269 267 264 263 263 263 262 261 261 262 263 264 264 264 264 264 264 264 264 264 264 263 263 263 263 264 265 265 266 266 267 267 268 269 269 269 270 271 273 273 272 271 271
280 280 280 280 280 277 277 277 277 278 279 277 277 274 272 271 271 271 270 268 266 264 263 264 263 262 261 261 262 263 263 263 264 264 264 264 265 264 264 263 263 263 263 264 264 264 265 265 266 267 267 268 268 268 270 271 271 272 271 270 270 270
279 279 280 280 281 279 276 276 276 277 277 275 273 271 271 271 269 270 268 266 265 264 263 265 263 264 263 262 262 264 264 263 263 264 264 264 265 266 265 264 264 264 264 264 264 264 264 265 265 267 270 269 271 271 270 270 271 271 271 271 272 270
279 279 279 280 281 280 277 276 275 275 276 274 271 270 270 270 269 268 267 265 265 265 263 264 264 264 264 263 262 263 263 264 266 265 264 263 265 267 268 268 265 265 265 265 265 266 265 265 267 270 271 272 272 273 273 274 274 274 272 272 272 270
278 278 278 279 279 279 278 277 275 274 274 272 270 269 270 269 268 268 267 265 265 265 264 264 264 264 264 264 264 263 262 262 264 268 268 267 266 267 269 270 270 270 269 267 266 268 271 271 272 272 272 272 272 272 273 273 273 272 272 271 269 265
277 277 277 279 279 279 278 276 275 274 272 271 269 269 269 268 269 268 268 266 266 265 264 265 264 264 263 263 263 263 264 264 263 264 268 270 269 269 270 270 270 271 271 272 271 269 268 269 270 271 271 271 272 272 273 272 272 271 271 270 269 263
278 278 279 278 278 277 277 275 274 272 270 269 268 267 268 268 268 269 268 266 266 265 264 265 264 263 263 263 262 262 263 264 264 264 264 266 269 270 270 269 269 270 270 270 271 271 270 269 270 270 271 271 271 272 272 271 271 270 270 269 264 261
279 279 278 276 276 276 275 274 271 269 269 267 267 267 267 267 267 268 269 267 266 265 264 264 264 263 263 263 263 262 262 263 264 265 265 263 262 263 265 267 268 268 269 269 269 269 269 269 270 270 270 270 271 271 271 270 268 269 268 266 261 260
277 276 275 274 273 273 272 273 272 268 267 266 266 266 266 267 267 267 266 264 264 265 264 264 265 264 263 263 262 262 262 262 263 263 262 263 262 262 261 261 263 266 267 266 266 267 268 269 269 269 269 270 271 270 269 268 264 262 262 262 261 261
275 274 273 271 271 271 271 272 269 267 266 265 264 264 265 265 265 266 267 264 263 264 265 265 264 264 263 262 262 262 262 262 261 261 261 261 261 261 260 260 260 260 264 266 266 267 267 268 268 268 269 270 269 267 267 261 261 260 260 260 260 260
Wind_Speed
12 11 11 10 10 9 9 9 8 8 8 10 10 12 11 11 9 9 8 8 7 7 9 9 8 8 7 7 7 7 7 7 6 6 5 4 4 3 3 3 3 3 3 3 3 3 3 3 3 4 4 4 3 3 3 3 4 4 4 4 3 3
12 12 12 12 12 11 10 10 8 10 10 11 10 10 10 10 10 9 10 8 8 9 8 8 8 8 7 7 7 7 7 6 6 6 5 4 3 3 3 3 3 3 3 2 2 2 2 3 3 3 3 3 3 3 2 3 4 4 4 4 3 3
12 12 11 10 10 9 9 9 10 10 9 10 11 12 12 11 10 9 9 8 9 10 9 9 8 8 7 8 7 7 6 6 5 5 5 4 3 2 2 2 1 2 1 1 2 2 2 2 3 3 3 3 3 3 3 4 4 4 4 4 5 4
12 11 10 9 9 9 10 10 10 10 11 10 11 10 10 11 10 9 9 8 9 9 9 8 7 7 7 7 7 6 6 5 5 4 4 4 3 3 2 2 1 1 1 0 1 1 1 2 2 3 3 3 4 4 2 3 4 5 5 5 5 5
12 12 12 12 11 10 11 10 10 11 11 11 10 11 11 10 10 9 9 9 9 9 8 8 7 7 7 7 6 6 6 5 5 4 4 4 4 3 2 2 2 1 1 1 0 1 1 2 2 2 2 3 3 4 4 4 5 5 5 6 6 6
11 11 12 12 11 12 12 11 11 11 11 10 10 11 12 10 9 9 9 9 9 9 8 8 7 8 7 7 6 7 6 5 4 3 3 4 4 4 3 2 2 2 2 1 1 1 1 1 2 2 3 3 4 4 5 5 5 5 6 6 6 6
13 12 11 11 11 11 12 12 12 12 11 11 11 10 11 10 9 9 9 9 10 9 8 8 8 8 7 7 6 6 6 5 4 4 4 4 4 3 3 3 3 2 2 2 1 1 1 2 2 3 3 3 4 5 5 6 5 6 6 6 6 6
10 10 12 11 11 12 12 12 12 12 11 11 10 11 10 10 9 9 9 9 9 8 8 8 7 7 7 7 7 7 6 5 4 4 3 3 3 3 3 3 2 2 2 2 1 0 1 2 2 3 3 4 4 5 5 5 6 6 6 6 6 6
13 13 13 12 12 12 12 13 13 12 12 12 11 10 10 9 9 8 8 8 8 8 9 8 8 7 7 7 6 6 5 4 4 3 3 3 3 3 4 3 3 2 2 1 1 0 1 2 2 3 3 4 5 5 6 6 6 6 6 6 6 6
13 13 14 13 12 12 11 11 12 12 12 13 11 10 9 7 10 10 9 9 8 8 9 8 8 8 7 6 6 6 5 4 4 3 3 3 4 4 4 3 3 3 2 2 1 0 1 2 2 2 3 4 5 5 6 6 6 7 7 7 7 7
13 14 14 14 14 14 14 13 13 12 11 11 12 10 10 10 9 10 11 10 10 9 9 8 7 7 7 7 7 6 5 5 4 4 4 4 4 3 3 3 3 2 3 2 2 1 1 2 2 1 2 4 5 5 6 6 7 7 8 8 7 7
13 12 12 13 14 15 14 13 13 13 13 12 11 11 10 11 11 11 10 10 9 9 9 8 7 7 7 7 7 6 6 5 5 4 4 4 4 4 3 3 3 3 2 1 1 1 1 2 1 1 4 5 5 6 6 6 7 7 7 8 8 8
10 10 11 13 14 15 15 14 14 12 12 11 11 10 10 10 12 11 11 11 10 9 8 8 8 8 8 7 7 6 6 6 5 5 5 4 4 4 4 3 3 2 2 1 1 1 2 2 2 3 7 7 9 7 7 7 7 8 8 8 9 9
11 12 13 14 14 15 14 14 14 13 13 11 11 11 11 12 12 12 11 10 9 9 9 8 8 8 8 8 7 7 4 4 3 3 3 4 4 3 3 3 3 2 2 1 1 2 2 3 4 7 7 8 9 9 7 7 7 7 7 8 8 9
10 11 11 12 13 15 15 14 13 13 12 14 14 12 13 13 12 12 11 10 10 10 9 8 8 8 7 6 6 5 5 4 4 4 4 4 3 4 4 3 3 2 1 1 1 2 3 4 5 7 8 9 10 11 10 7 8 8 8 8 9 10
7 9 11 12 13 14 13 14 15 13 14 15 13 14 13 13 12 12 11 10 10 9 8 8 7 6 6 6 6 6 5 5 5 4 4 3 4 4 2 2 3 2 1 1 2 3 3 4 5 8 9 10 11 11 10 8 8 8 9 9 9 8
7 8 8 10 11 11 11 12 12 7 11 12 12 13 13 13 12 11 11 11 9 8 8 8 7 7 6 6 6 6 5 5 4 4 4 5 4 4 3 3 2 2 1 2 2 3 4 4 8 9 9 10 11 11 11 7 7 8 8 8 8 9
9 9 9 8 8 9 10 11 10 10 10 10 12 13 13 13 13 12 10 8 8 9 9 8 7 7 6 7 6 6 6 6 6 6 5 4 3 2 2 1 2 2 2 2 2 2 5 5 8 9 9 10 10 12 7 6 7 7 8 8 9 9
5 6 5 6 7 8 8 9 10 10 11 12 11 11 11 12 12 10 11 11 9 9 9 9 9 7 7 7 7 7 7 7 6 5 4 4 3 3 2 3 2 2 2 2 3 3 4 5 6 8 9 10 11 9 5 6 6 7 8 8 9 9
2 4 6 7 7 7 7 8 9 11 10 11 12 13 14 12 10 11 11 9 10 10 9 10 8 9 8 7 8 7 6 5 4 5 4 4 3 3 3 2 2 2 2 3 3 3 4 4 6 9 10 10 10 8 7 6 6 8 8 9 9 9
5 5 5 7 8 8 8 10 12 12 11 11 9 10 9 10 11 10 10 10 10 10 8 7 8 9 10 9 6 7 7 6 5 4 3 2 2 3 2 2 2 2 2 3 3 6 6 5 6 8 9 10 9 7 5 6 6 8 8 8 9 9
5 5 7 8 8 8 9 8 11 12 11 11 8 11 14 14 16 13 9 8 9 9 8 9 11 10 11 10 7 5 5 5 4 4 4 3 3 3 2 3 2 2 2 2 3 4 4 4 4 4 9 9 9 10 7 6 6 7 8 8 8 9
5 6 7 6 6 7 6 7 8 10 11 10 9 15 13 11 8 9 9 9 9 9 10 8 10 11 8 7 8 6 5 4 5 5 4 4 3 3 2 2 1 2 3 3 4 4 4 4 4 5 9 9 9 10 9 6 7 7 8 8 9 8
5 4 4 4 5 6 5 8 10 9 10 9 14 17 11 7 10 10 10 10 10 10 9 9 8 7 8 7 7 6 5 4 4 5 5 3 4 4 3 2 2 2 2 2 3 4 4 5 7 4 7 9 9 10 11 7 7 8 8 9 8 9
6 6 6 4 4 5 3 8 9 9 9 12 17 11 9 12 11 11 10 10 10 10 10 9 10 9 7 7 6 7 6 5 4 4 3 3 3 4 3 3 3 2 2 2 2 3 3 3 4 7 6 8 10 11 11 12 10 13 9 9 9 9
5 5 5 4 4 3 5 10 10 9 11 16 15 9 7 7 7 8 9 9 9 9 9 9 8 8 5 5 6 5 5 6 5 4 4 5 4 4 4 3 4 3 2 2 2 2 2 2 2 5 7 7 9 10 10 10 12 13 9 9 9 9
8 7 4 4 4 4 6 8 10 11 13 15 8 8 9 8 9 10 10 10 9 10 9 8 6 5 6 6 6 6 6 5 5 5 5 4 4 3 3 2 2 2 2 2 2 2 2 2 2 2 5 8 8 9 10 11 12 13 14 9 7 7
2 4 5 5 6 6 6 8 9 12 16 6 6 6 7 8 10 10 11 9 9 11 11 11 7 5 4 6 5 4 5 6 6 5 5 5 4 4 3 3 3 2 2 2 2 2 2 2 2 3 4 5 5 6 9 11 12 13 14 13 8 11
5 7 7 8 8 6 7 10 11 12 5 4 5 6 7 9 10 10 8 10 10 9 9 9 6 6 5 4 4 4 4 5 5 5 5 5 5 4 4 3 3 3 3 3 3 2 2 3 3 4 3 3 3 4 7 8 9 12 11 7 4 7
8 8 8 10 10 9 11 11 13 13 8 4 6 7 9 10 10 11 11 12 9 6 7 6 9 8 6 6 6 6 6 5 5 5 6 6 6 5 5 5 5 5 4 4 3 2 3 3 4 4 4 3 4 6 6 5 7 6 4 2 4 4
10 11 10 11 9 8 10 11 12 10 9 6 6 9 10 10 10 8 8 9 6 6 6 6 7 7 7 6 6 5 6 6 7 6 4 3 3 4 5 5 5 5 3 3 4 4 4 4 5 5 5 6 9 8 7 6 5 5 3 4 10 6
8 9 10 8 5 6 8 9 10 9 9 6 6 8 10 10 9 9 10 8 6 6 7 6 6 6 6 6 7 5 3 5 8 6 4 3 7 9 8 7 5 5 5 5 6 6 7 6 5 6 9 11 12 12 12 12 12 10 7 9 11 7
6 6 7 8 4 6 7 8 8 7 7 7 8 9 9 9 8 5 4 6 6 7 8 6 6 6 6 6 6 6 6 4 6 11 11 8 8 10 12 13 13 12 13 9 6 8 13 12 12 12 11 11 11 12 12 11 10 10 9 10 6 3
6 8 11 11 7 8 7 7 6 7 8 8 8 8 8 9 9 7 7 6 4 8 6 5 5 6 6 5 5 6 6 6 5 4 11 14 12 12 12 12 13 15 15 16 13 8 5 10 11 10 10 10 11 12 11 10 9 8 8 9 6 2
10 10 9 7 6 6 6 7 6 4 6 7 8 9 9 10 11 12 10 7 6 5 8 5 5 6 6 6 7 6 5 5 5 5 4 6 11 12 12 11 12 12 13 13 13 13 11 10 9 10 10 10 11 11 9 8 8 7 8 6 3 2
6 6 5 4 5 5 5 6 4 5 7 8 9 10 11 11 11 11 6 7 7 7 7 6 6 6 6 5 5 5 5 5 4 3 5 5 3 3 7 10 11 11 12 12 12 11 11 11 10 10 9 10 11 9 7 6 5 8 6 3 2 2
5 4 4 4 4 4 5 8 5 6 8 9 10 10 10 10 9 8 9 12 11 6 6 6 6 6 5 5 5 5 5 5 4 3 4 5 6 6 5 4 5 9 11 8 7 10 11 10 10 8 8 9 9 5 4 5 2 2 1 1 2 3
5 5 4 4 4 5 6 8 3 5 6 7 9 10 10 10 8 8 4 5 8 5 5 5 4 5 5 5 4 4 4 3 4 3 3 2 1 1 2 2 3 2 4 9 9 10 10 10 9 8 8 9 4 1 1 0 2 1 2 2 2 3
Wind_Direction
173 170 166 165 167 167 164 161 156 155 156 154 149 146 144 140 136 132 127 123 121 121 118 117 116 114 112 112 109 106 100 93 92 91 90 87 79 68 63 50 47 37 23 35 17 11 6 6 4 358 354 342 355 346 352 358 345 327 319 312 320 305
172 169 166 168 169 167 166 162 161 162 158 156 152 146 144 141 139 138 134 129 128 125 122 120 119 118 120 117 112 107 105 107 109 108 101 90 79 80 67 62 49 37 28 15 21 355 359 360 357 348 342 331 345 332 339 331 317 306 302 302 308 300
168 166 167 165 162 165 164 165 168 165 160 163 159 154 152 150 147 144 138 136 133 133 131 130 128 124 119 115 113 112 113 113 109 103 107 105 95 91 100 86 68 41 34 10 355 11 340 358 345 340 333 330 327 317 312 305 304 299 297 306 300 293
164 164 162 160 162 168 171 169 172 169 169 167 162 159 158 154 152 147 142 139 141 139 135 131 127 124 119 120 119 115 119 119 112 115 122 119 120 126 119 116 105 63 30 338 326 339 340 336 342 324 334 326 318 315 307 296 305 303 300 300 300 304
167 167 165 167 170 172 174 174 177 174 174 168 168 164 164 160 153 148 146 144 143 138 132 131 132 128 128 128 127 125 125 120 117 126 143 143 143 149 141 127 147 150 213 223 279 290 311 331 325 325 316 316 313 313 309 306 305 303 301 303 300 304
161 163 170 170 176 179 180 179 179 177 177 173 169 170 164 159 154 151 148 145 142 140 140 142 139 139 140 136 130 132 126 125 129 144 157 158 163 157 144 148 166 183 187 217 198 288 287 322 322 314 320 311 311 307 305 301 299 295 295 294 298 302
170 174 173 178 182 181 182 184 183 179 179 174 173 170 166 159 155 152 152 150 147 147 148 146 144 146 147 140 138 136 131 137 147 161 172 165 154 156 154 172 169 190 181 178 179 282 308 323 319 318 315 313 306 303 300 298 295 292 291 290 290 294
169 170 181 183 185 184 185 184 183 181 178 177 173 170 164 162 156 155 152 153 148 148 148 148 150 155 153 146 142 139 141 149 159 157 163 160 162 161 169 172 182 175 182 164 172 278 317 326 322 316 310 310 308 301 295 294 295 295 295 295 295 293
184 191 187 186 184 184 185 185 182 181 179 178 176 171 165 160 154 149 148 148 149 155 159 161 162 158 154 149 142 139 144 153 156 168 166 174 183 180 179 175 176 192 158 178 139 258 325 308 304 302 313 310 307 301 299 300 299 295 294 292 294 294
188 190 192 186 184 184 185 185 184 181 182 178 172 171 159 149 154 158 158 156 157 161 163 163 162 157 154 146 137 139 147 152 158 171 175 183 197 183 185 180 182 186 168 165 158 186 265 297 292 302 317 322 316 313 310 307 302 299 299 299 297 295
194 194 190 188 181 182 184 182 182 182 183 177 175 167 163 158 157 164 167 169 173 169 165 158 152 149 141 140 140 144 153 161 168 179 189 199 197 188 182 180 178 189 176 165 172 185 256 274 283 307 346 326 316 313 309 303 300 301 300 298 296 294
196 189 185 182 182 184 185 184 184 186 183 174 173 166 160 159 169 167 170 172 171 163 156 149 146 151 148 148 149 156 158 165 174 186 196 200 198 191 180 174 180 178 172 165 176 192 230 265 262 274 295 298 305 307 303 301 297 301 301 302 300 297
196 185 184 187 188 189 188 188 186 182 179 171 168 167 166 162 172 176 177 178 172 152 147 148 155 153 156 155 154 156 160 170 177 191 196 198 199 192 177 180 177 166 154 162 173 246 253 248 250 272 296 303 307 306 301 298 299 298 298 298 295 296
196 192 190 191 191 191 191 186 184 180 180 172 175 171 167 171 177 176 176 175 157 156 157 157 155 155 158 154 157 155 161 165 174 193 194 199 198 194 173 173 155 146 158 159 212 249 257 270 276 289 299 305 306 305 301 298 296 296 295 292 292 294
192 191 191 190 193 193 193 183 179 182 175 178 180 168 172 177 178 179 179 175 165 162 159 153 155 158 156 157 152 149 152 160 179 194 194 205 192 185 177 155 140 155 144 190 249 267 272 274 283 291 301 305 306 305 305 295 292 290 288 287 290 291
196 199 196 194 195 196 192 187 189 189 183 181 172 174 178 177 182 183 181 170 167 158 150 149 154 158 158 150 146 153 162 169 187 190 194 191 195 187 154 141 151 153 168 211 273 272 276 279 287 299 301 304 305 306 305 293 290 285 284 285 287 287
195 197 200 199 198 197 196 200 197 166 175 172 172 177 176 183 181 182 176 170 158 148 149 155 157 158 154 149 153 160 169 173 181 180 196 196 193 172 163 160 161 167 181 247 255 269 275 273 284 293 299 303 306 305 307 296 292 288 286 286 286 286
198 199 203 197 192 196 194 192 178 167 171 160 169 178 182 184 186 184 167 156 156 160 164 155 160 161 153 156 159 167 174 174 180 189 194 187 175 149 134 141 152 179 204 235 258 263 266 273 285 295 299 303 303 308 307 298 291 290 287 287 286 285
193 196 183 180 182 185 189 179 172 159 154 171 179 178 184 185 188 182 173 177 166 166 164 166 166 160 155 158 161 173 175 171 180 190 183 177 170 156 158 156 179 191 201 223 237 252 265 269 283 294 298 299 302 308 301 293 289 286 289 285 285 284
154 164 161 170 181 181 169 157 152 156 142 162 177 180 187 184 186 182 176 173 170 167 168 175 166 149 154 159 171 171 171 167 174 181 183 170 161 157 161 173 180 196 210 224 239 250 265 270 283 290 295 297 298 299 294 291 288 287 287 287 284 282
160 164 169 175 177 179 163 159 163 168 164 175 168 171 172 185 190 178 172 178 167 170 160 154 143 148 150 155 167 160 163 163 170 163 158 151 140 147 158 177 186 194 217 228 241 259 263 268 274 282 288 291 292 293 286 283 285 286 284 288 288 285
133 160 177 185 184 171 159 156 166 177 174 177 155 171 194 197 198 191 170 162 145 138 146 155 167 160 164 151 146 142 147 153 155 157 158 155 158 160 169 174 189 187 231 247 245 244 250 260 264 268 280 284 286 286 284 282 280 282 285 288 289 287
181 191 191 186 165 147 144 141 160 175 187 174 174 198 204 196 173 161 150 150 152 158 162 153 166 165 158 139 140 143 143 156 159 153 154 152 161 153 160 165 192 217 234 239 240 246 250 243 254 264 273 282 284 287 287 282 278 281 284 281 277 276
190 197 195 186 146 140 144 164 174 185 177 176 199 209 198 170 176 164 163 165 164 161 160 160 152 148 150 142 143 139 147 146 138 146 149 167 152 144 164 189 206 215 232 242 247 248 249 250 251 259 271 281 286 288 286 280 275 274 272 274 283 294
187 198 190 165 136 152 147 170 182 190 189 197 212 197 180 193 174 172 170 165 162 163 162 157 153 145 138 139 141 146 143 138 137 139 146 131 133 154 176 193 203 211 229 240 249 247 244 246 246 256 263 275 285 290 290 286 285 287 289 290 284 280
183 181 177 146 147 158 167 175 188 194 198 214 213 190 186 175 169 162 164 167 167 156 157 152 145 135 127 140 143 142 140 153 150 158 165 165 172 173 182 191 182 197 210 225 239 239 246 251 246 252 268 284 288 293 293 291 290 290 287 282 283 289
188 180 157 157 159 167 176 188 187 197 209 222 195 186 179 170 160 166 171 173 167 162 146 133 137 144 146 148 150 149 153 142 158 167 167 161 182 183 179 190 181 194 219 232 235 243 250 250 258 271 282 282 284 286 288 294 296 295 296 297 288 294
141 174 183 174 173 182 188 195 194 199 221 193 185 182 166 160 164 175 181 171 165 160 148 141 127 130 134 152 163 165 163 161 174 178 165 171 180 177 180 184 180 190 206 220 227 226 234 257 267 270 274 275 272 274 288 295 298 296 294 296 306 312
200 207 199 206 189 185 192 199 209 217 209 165 175 161 163 166 177 180 171 170 149 128 142 152 157 153 152 165 163 176 171 172 180 179 169 174 174 178 180 180 177 193 202 208 214 219 239 256 264 265 260 251 257 271 275 274 273 279 294 304 311 310
209 215 213 221 205 188 199 204 212 215 204 163 156 158 161 177 182 184 182 172 151 150 163 167 157 157 158 177 176 173 180 186 190 182 186 181 178 171 181 175 185 190 196 201 198 213 239 251 250 248 238 242 263 265 266 277 286 287 301 296 312 314
208 216 217 226 215 200 203 213 218 214 206 183 158 161 174 187 188 183 168 161 137 155 165 172 159 174 165 170 181 195 190 185 185 189 190 192 181 182 173 174 183 184 189 188 203 214 236 241 239 237 230 245 267 280 289 284 279 297 311 312 313 321
216 223 226 236 210 207 211 219 221 211 205 174 166 165 181 186 174 175 169 166 166 163 160 173 165 176 167 164 177 177 195 212 202 193 178 180 199 207 207 190 188 177 178 202 217 213 224 231 236 246 260 276 285 285 285 287 294 303 309 311 315 319
226 238 248 249 228 222 218 221 219 205 196 183 175 179 185 172 172 173 172 168 189 173 167 167 163 174 170 167 171 176 184 191 212 216 211 199 193 204 215 218 217 214 216 211 215 228 231 238 251 266 277 279 278 283 285 291 301 303 307 314 320 313
221 225 235 238 226 228 224 227 217 197 194 184 179 177 178 181 182 187 188 182 177 158 165 171 159 154 165 164 168 172 176 181 170 191 213 214 214 216 221 224 228 232 238 240 239 236 234 252 257 259 262 268 277 279 283 292 297 302 306 306 307 285
221 226 235 239 236 235 231 229 225 176 181 175 174 177 188 194 199 208 197 156 156 167 183 183 166 173 173 166 168 176 182 183 178 169 164 201 220 229 231 232 232 236 237 239 241 242 241 242 247 253 260 268 272 275 284 293 299 305 304 301 288 245
236 239 244 244 236 235 234 239 210 167 176 171 177 186 198 200 206 212 200 157 160 163 177 182 176 176 181 176 171 174 177 191 179 166 154 154 177 229 242 236 234 231 233 237 238 241 245 249 254 258 262 265 267 274 283 295 303 298 282 237 231 253
247 249 241 232 231 226 231 239 214 174 174 175 179 188 200 204 203 207 209 186 179 174 174 172 175 169 165 161 166 168 175 180 172 152 159 173 181 192 196 191 204 220 223 227 237 243 243 245 247 252 259 260 265 276 287 311 304 287 234 225 203 236
238 246 236 223 226 230 236 247 190 156 164 169 176 188 199 202 198 196 180 163 182 174 173 171 162 160 161 157 161 162 168 164 156 162 171 172 192 189 171 168 182 187 220 226 231 234 239 240 240 247 254 255 261 60 2 282 249 248 238 236 246 238